Date String (YYYY-MM-DD hh:mm:ss) UTC,Instrument flags,absolute air pressure of the measurement (hPa),sample flow rate (lpm),inlet stack bypass flow (lpm),air temperature of the measurement (°C),ambient temperature measured by the external sensor (°C),aerosol sample conditioner tube jacket temperature (°C),OPC LED temperature (°C),internal box temperature (°C),relative humidity of the measurement (%),span deviation,mass concentration of particles derived from Lorenz-Mie calculation of OPC scattering (μg/m³),mass concentration of particles derived from Lorenz-Mie calculation of OPC scattering (μg/m³),mass concentration of particles derived from Lorenz-Mie calculation of OPC scattering (μg/m³)
DateTimeUTC,F1_M11,P_M11,Q1_M11,Q2_M11,T1_M11,T2_M11,T3_M11,T4_M11,T5_M11,U1_M11,ZSPAN_M11,X2_M11,X0_M11,X1_M11
2023-09-28 18:00:00,SystemResetWarning,0827.7,5.01,000.00,028.1,025.8,000.0,036.5,029.8,13.8,0002.2,0006.41,0018.47,0005.23
2023-09-28 18:01:00,SystemResetWarning,0827.8,5.00,000.00,028.1,026.2,000.0,036.5,029.9,15.6,0002.4,0006.43,0017.95,0005.24
2023-09-28 18:02:00,SystemResetWarning,0827.7,4.99,000.00,028.1,026.5,000.0,036.6,030.0,15.3,0002.5,0006.44,0018.23,0005.23
2023-09-28 18:03:00,SystemResetWarning,0827.8,5.00,000.00,028.2,026.8,000.0,036.6,030.0,14.1,0002.6,0006.47,0018.30,0005.23
2023-09-28 18:04:00,SystemResetWarning,0827.8,5.00,000.00,028.2,027.0,000.0,036.6,030.1,14.1,0002.4,0006.48,0018.53,0005.24
2023-09-28 18:05:00,SystemResetWarning,0827.8,4.99,000.00,028.3,026.3,000.0,036.6,030.1,13.5,0002.8,0006.50,0019.41,0005.25
2023-09-28 18:06:00,SystemResetWarning,0827.8,5.01,000.00,028.2,024.9,000.0,036.5,029.9,12.8,0002.2,0006.52,0019.59,0005.26
2023-09-28 18:07:00,SystemResetWarning,0827.7,5.01,000.00,028.2,024.8,000.0,036.5,029.8,13.2,0002.0,0006.55,0020.02,0005.25
2023-09-28 18:08:00,SystemResetWarning,0827.8,5.01,000.00,028.1,025.1,000.0,036.5,029.8,13.6,0002.2,0006.57,0021.26,0005.25
2023-09-28 18:09:00,SystemResetWarning,0827.8,5.00,000.00,028.1,025.5,000.0,036.5,029.8,13.2,0002.7,0006.59,0022.17,0005.25
2023-09-28 18:10:00,SystemResetWarning,0827.7,5.00,000.00,028.1,025.9,000.0,036.5,029.8,13.6,0003.0,0006.69,0022.86,0005.25
2023-09-28 18:11:00,SystemResetWarning,0827.7,5.00,000.00,028.1,026.2,000.0,036.5,029.9,13.8,0003.1,0006.68,0022.95,0005.25
2023-09-28 18:12:00,SystemResetWarning,0827.7,5.00,000.00,028.1,026.6,000.0,036.6,030.0,12.7,0003.2,0006.71,0023.35,0005.23
2023-09-28 18:13:00,SystemResetWarning,0827.7,5.00,000.00,028.2,026.8,000.0,036.6,030.0,12.9,0002.9,0006.83,0024.31,0005.23
2023-09-28 18:14:00,SystemResetWarning,0827.7,5.00,000.00,028.2,026.9,000.0,036.6,030.1,13.1,0002.5,0006.86,0025.27,0005.23
2023-09-28 18:15:00,SystemResetWarning,0827.7,4.98,000.00,028.2,025.5,000.0,036.6,030.0,12.9,0002.5,0006.90,0026.76,0005.25
2023-09-28 18:16:00,SystemResetWarning,0827.7,5.02,000.00,028.2,024.5,000.0,036.5,029.8,13.0,0003.0,0006.98,0026.75,0005.27
2023-09-28 18:17:00,SystemResetWarning,0827.7,5.00,000.00,028.1,024.7,000.0,036.5,029.8,13.2,0003.4,0007.02,0026.59,0005.28
2023-09-28 18:18:00,SystemResetWarning,0827.7,4.99,000.00,028.1,025.1,000.0,036.5,029.7,13.0,0003.7,0007.04,0026.89,0005.29
2023-09-28 18:19:00,SystemResetWarning,0827.7,4.99,000.00,028.0,025.5,000.0,036.5,029.7,13.2,0003.8,0007.01,0025.28,0005.27
2023-09-28 18:20:00,SystemResetWarning,0827.7,5.00,000.00,028.1,025.9,000.0,036.5,029.8,13.4,0003.6,0007.02,0024.89,0005.27
2023-09-28 18:21:00,SystemResetWarning,0827.7,5.01,000.00,028.1,026.3,000.0,036.5,029.9,13.2,0003.2,0007.03,0024.75,0005.27
2023-09-28 18:22:00,SystemResetWarning,0827.7,5.00,000.00,028.1,026.6,000.0,036.5,030.0,13.4,0003.0,0007.16,0025.39,0005.27
2023-09-28 18:23:00,SystemResetWarning,0827.7,4.99,000.00,028.2,026.9,000.0,036.6,030.0,13.6,0003.2,0007.18,0025.52,0005.26
2023-09-28 18:24:00,SystemResetWarning,0827.7,4.99,000.00,028.2,027.0,000.0,036.6,030.1,12.9,0003.2,0007.07,0025.07,0005.27
2023-09-28 18:25:00,SystemResetWarning,0827.7,4.99,000.00,028.2,025.9,000.0,036.5,030.0,12.7,0001.9,0007.06,0024.20,0005.26
2023-09-28 18:26:00,SystemResetWarning,0827.7,5.00,000.00,028.2,024.6,000.0,036.5,029.8,12.2,0000.4,0007.05,0022.84,0005.23
2023-09-28 18:27:00,SystemResetWarning,0827.7,5.01,000.00,028.1,024.8,000.0,036.4,029.8,11.9,0000.0,0006.98,0022.11,0005.19
2023-09-28 18:28:00,SystemResetWarning,0827.6,5.00,000.00,028.1,025.1,000.0,036.4,029.7,12.1,0003.1,0006.91,0022.01,0005.15
2023-09-28 18:29:00,SystemResetWarning,0827.7,5.00,000.00,028.0,025.5,000.0,036.5,029.7,12.3,0000.0,0006.85,0021.61,0005.13
2023-09-28 18:30:00,SystemResetWarning,0827.7,5.00,000.00,028.1,025.9,000.0,036.5,029.8,12.0,0000.0,0006.90,0022.07,0005.13
2023-09-28 18:31:00,SystemResetWarning,0827.6,5.00,000.00,028.1,026.3,000.0,036.5,029.9,12.0,0000.0,0006.93,0022.60,0005.14
2023-09-28 18:32:00,SystemResetWarning,0827.7,5.01,000.00,028.1,026.6,000.0,036.5,030.0,12.3,0000.0,0006.91,0022.64,0005.13
2023-09-28 18:33:00,SystemResetWarning,0827.7,5.00,000.00,028.2,026.8,000.0,036.5,030.1,11.9,0000.0,0006.74,0021.10,0005.11
2023-09-28 18:34:00,SystemResetWarning,0827.6,4.98,000.00,028.2,025.8,000.0,036.5,030.0,12.3,0000.0,0006.57,0019.82,0005.08
2023-09-28 18:35:00,SystemResetWarning,0827.6,5.02,000.00,028.1,024.6,000.0,036.4,029.8,11.8,0003.4,0006.47,0019.78,0005.05
2023-09-28 18:36:00,SystemResetWarning,0827.5,5.00,000.00,028.1,024.7,000.0,036.4,029.7,11.3,0003.7,0006.33,0019.68,0005.02
2023-09-28 18:37:00,SystemResetWarning,0827.5,4.99,000.00,028.0,025.0,000.0,036.4,029.6,11.3,0000.0,0006.28,0018.87,0005.02
2023-09-28 18:38:00,SystemResetWarning,0827.5,5.00,000.00,028.0,025.4,000.0,036.4,029.7,12.0,0000.0,0006.19,0018.22,0005.01
2023-09-28 18:39:00,SystemResetWarning,0827.5,5.00,000.00,028.0,025.9,000.0,036.4,029.7,12.3,0000.0,0006.14,0017.69,0004.99
2023-09-28 18:40:00,SystemResetWarning,0827.5,5.00,000.00,028.0,026.2,000.0,036.5,029.8,12.4,0000.0,0006.04,0016.19,0004.96
2023-09-28 18:41:00,SystemResetWarning,0827.6,5.00,000.00,028.1,026.6,000.0,036.5,029.9,12.5,0000.0,0005.92,0015.25,0004.94
2023-09-28 18:42:00,SystemResetWarning,0827.7,5.00,000.00,028.1,026.9,000.0,036.5,030.0,13.2,0000.0,0005.84,0013.90,0004.91
2023-09-28 18:43:00,SystemResetWarning,0827.6,4.99,000.00,028.2,026.7,000.0,036.5,030.1,12.8,0000.0,0005.74,0012.74,0004.87
2023-09-28 18:44:00,SystemResetWarning,0827.4,5.00,000.00,028.2,025.3,000.0,036.5,029.9,13.1,0000.0,0005.65,0011.91,0004.84
2023-09-28 18:45:00,SystemResetWarning,0827.4,5.00,000.00,028.1,024.5,000.0,036.4,029.8,12.6,0000.0,0005.64,0011.83,0004.85
2023-09-28 18:46:00,SystemResetWarning,0827.4,5.02,000.00,028.1,024.9,000.0,036.4,029.7,12.9,0000.0,0005.65,0011.27,0004.85
2023-09-28 18:47:00,SystemResetWarning,0827.4,5.00,000.00,028.0,025.2,000.0,036.4,029.7,13.6,0000.0,0005.67,0010.40,0004.84
2023-09-28 18:48:00,SystemResetWarning,0827.4,4.99,000.00,028.0,025.6,000.0,036.4,029.7,14.0,0000.0,0005.62,0010.52,0004.83
2023-09-28 18:49:00,SystemResetWarning,0827.4,5.01,000.00,028.0,026.0,000.0,036.4,029.8,12.6,0000.0,0005.59,0010.61,0004.82
2023-09-28 18:50:00,SystemResetWarning,0827.4,5.01,000.00,028.1,026.4,000.0,036.5,029.9,12.0,0000.0,0005.57,0010.74,0004.82
2023-09-28 18:51:00,SystemResetWarning,0827.4,4.99,000.00,028.1,026.7,000.0,036.5,030.0,11.9,0000.0,0005.53,0011.74,0004.83
2023-09-28 18:52:00,SystemResetWarning,0827.4,4.99,000.00,028.2,026.7,000.0,036.5,030.0,12.3,0000.0,0005.52,0012.37,0004.82
2023-09-28 18:53:00,SystemResetWarning,0827.4,5.00,000.00,028.1,025.3,000.0,036.4,029.9,12.4,0000.0,0005.49,0013.09,0004.81
2023-09-28 18:54:00,SystemResetWarning,0827.4,5.00,000.00,028.1,024.4,000.0,036.4,029.7,12.7,0000.0,0005.46,0014.08,0004.82
2023-09-28 18:55:00,SystemResetWarning,0827.4,5.01,000.00,028.0,024.8,000.0,036.4,029.7,12.5,0000.0,0005.43,0014.37,0004.82
2023-09-28 18:56:00,SystemResetWarning,0827.4,5.01,000.00,028.0,025.1,000.0,036.4,029.6,13.0,0000.0,0005.42,0014.14,0004.80
2023-09-28 18:57:00,SystemResetWarning,0827.4,4.99,000.00,028.0,025.6,000.0,036.4,029.7,12.3,0000.0,0005.42,0013.68,0004.81
2023-09-28 18:58:00,SystemResetWarning,0827.3,5.00,000.00,028.0,026.0,000.0,036.4,029.7,12.7,0000.0,0005.42,0013.74,0004.81
2023-09-28 18:59:00,SystemResetWarning,0827.3,5.01,000.00,028.0,026.4,000.0,036.4,029.8,13.3,0000.0,0005.42,0013.92,0004.82
